Flag for U.S.A. Weather past 2 weeks in Babylon, New York, U.S.A.

Now
57 °F

Sunny.


Feels Like: 56 °F
Forecast: 45 / 57 °F
Wind: 6 mph from North

Location: Republic Airport

Current Time: Apr 19, 2015 at 11:19:37 AM

Latest Report: Apr 19, 2015 at 10:53 AM


Visibility: 10 mi

Pressure: 30.27 "Hg

Humidity: 41%

Dew point: 33 °F

Location of BabylonLocation

Historic Weather in Babylon — Graph

°F

Babylon temperature yesterday

Maximum temperature yesterday: 74 °F (at 12:53 PM)
Minimum temperature yesterday: 48 °F (at 5:53 AM)
Average temperature yesterday: 62 °F

Past Weeks' High & Low Weather Summary

 TemperatureHumidityPressure
High74 °F (Apr 18, 12:53 PM)100% (Apr 10, 10:53 AM)30.50 "Hg (Apr 10, 10:53 AM)
Low34 °F (Apr 5, 2:53 AM)14% (Apr 15, 3:53 PM)29.74 "Hg (Apr 4, 9:53 AM)
Average51 °F61%30.16 "Hg
* Reported Apr 4 9:53 AM — Apr 19 9:53 AM, Babylon, Weather by CustomWeather, © 2015

Note: Actual official high and low records may vary slightly from our data, if they occured in-between our weather recording intervals... More about our weather records

Advertising

Babylon weather history for previous 24 hours

 ConditionsComfort  
Time TempWeatherWind HumidityBarometerVisibility
9:53 AM
Sun, Apr 19
55 °FSunny.6 mph45%30.27 "Hg10 mi
8:53 AM54 °FSunny.8 mph45%30.25 "Hg10 mi
7:53 AM52 °FSunny.5 mph50%30.24 "Hg10 mi
6:53 AM49 °FClear.No wind44%30.21 "Hg10 mi
5:53 AM49 °FClear.6 mph41%30.18 "Hg10 mi
4:53 AM51 °FClear.5 mph33%30.16 "Hg10 mi
3:53 AM53 °FClear.7 mph31%30.14 "Hg10 mi
2:53 AM56 °FClear.10 mph28%30.10 "Hg10 mi
1:53 AM57 °FClear.10 mph31%30.09 "Hg10 mi
12:53 AM59 °FClear.6 mph32%30.08 "Hg10 mi
11:53 PM
Sat, Apr 18
61 °FClear.9 mph32%30.04 "Hg10 mi
10:53 PM62 °FClear.9 mph34%30.02 "Hg10 mi
9:53 PM56 °FClear.5 mph62%29.98 "Hg10 mi
8:53 PM59 °FClear.No wind58%29.95 "Hg10 mi
7:53 PM60 °FSunny.8 mph52%29.91 "Hg10 mi
6:53 PM63 °FSunny.16 mph47%29.88 "Hg10 mi
5:53 PM64 °FSunny.18 mph49%29.88 "Hg10 mi
4:53 PM66 °FSunny.17 mph47%29.88 "Hg10 mi
3:53 PM71 °FSunny.18 mph39%29.88 "Hg10 mi
2:53 PM72 °FSunny.15 mph38%29.89 "Hg10 mi
1:53 PM74 °FSunny.6 mph31%29.91 "Hg10 mi
12:53 PM74 °FSunny.7 mph33%29.95 "Hg10 mi
11:53 AM70 °FSunny.12 mph34%29.96 "Hg10 mi
Weather by CustomWeather, © 2015

See weather overviewHow to use our weather pages